TimeCST,TemperatureF,Dew PointF,Humidity,Sea Level PressureIn,VisibilityMPH,Wind Direction,Wind SpeedMPH,Gust SpeedMPH,PrecipitationIn,Events,Conditions,WindDirDegrees,DateUTC
12:52 AM,26.1,19.0,75,30.05,10.0,North,9.2,-,N/A,,Clear,360,2012-12-24 06:52:00
1:52 AM,24.1,19.0,81,30.05,10.0,North,12.7,-,N/A,,Clear,10,2012-12-24 07:52:00
2:52 AM,19.9,16.0,85,30.08,9.0,North,8.1,-,N/A,,Clear,350,2012-12-24 08:52:00
3:52 AM,18.0,14.0,84,30.09,9.0,North,8.1,-,N/A,,Clear,10,2012-12-24 09:52:00
4:52 AM,21.0,17.1,85,30.06,9.0,NNE,6.9,-,N/A,,Clear,30,2012-12-24 10:52:00
5:52 AM,21.9,18.0,85,30.07,9.0,North,6.9,-,N/A,,Clear,10,2012-12-24 11:52:00
6:52 AM,19.9,16.0,85,30.06,8.0,NNE,10.4,-,N/A,,Clear,30,2012-12-24 12:52:00
7:52 AM,19.9,15.1,81,30.06,8.0,NE,5.8,-,N/A,,Clear,50,2012-12-24 13:52:00
8:52 AM,19.9,14.0,78,30.07,8.0,NE,5.8,-,N/A,,Clear,40,2012-12-24 14:52:00
9:52 AM,21.9,15.1,75,30.09,8.0,NNE,5.8,-,N/A,,Clear,30,2012-12-24 15:52:00
10:52 AM,26.1,18.0,71,30.08,8.0,ENE,9.2,-,N/A,,Clear,60,2012-12-24 16:52:00
11:52 AM,28.9,16.0,58,30.06,10.0,ENE,12.7,-,N/A,,Clear,70,2012-12-24 17:52:00
12:52 PM,28.9,16.0,58,30.04,10.0,ENE,9.2,-,N/A,,Clear,70,2012-12-24 18:52:00
1:52 PM,30.0,16.0,56,30.02,10.0,East,12.7,-,N/A,,Clear,80,2012-12-24 19:52:00
2:52 PM,30.9,17.1,57,29.99,10.0,East,13.8,-,N/A,,Clear,80,2012-12-24 20:52:00
3:52 PM,28.9,16.0,58,29.97,10.0,ENE,17.3,-,N/A,,Clear,70,2012-12-24 21:52:00
4:52 PM,26.1,14.0,60,29.95,10.0,ENE,18.4,-,N/A,,Clear,70,2012-12-24 22:52:00
5:52 PM,23.0,14.0,68,29.95,10.0,ENE,15.0,21.9,N/A,,Clear,60,2012-12-24 23:52:00
6:52 PM,21.0,12.9,71,29.97,10.0,ENE,20.7,25.3,N/A,,Clear,60,2012-12-25 00:52:00
7:52 PM,19.9,12.0,71,29.98,10.0,ENE,17.3,25.3,N/A,,Clear,60,2012-12-25 01:52:00
8:52 PM,19.0,10.9,71,30.01,10.0,NE,15.0,24.2,N/A,,Clear,50,2012-12-25 02:52:00
9:52 PM,16.0,10.9,81,30.02,10.0,NNE,18.4,-,N/A,,Clear,30,2012-12-25 03:52:00
10:52 PM,14.0,10.0,84,30.03,10.0,NE,16.1,23.0,N/A,,Clear,40,2012-12-25 04:52:00
11:11 PM,14.0,10.4,86,29.96,10.0,NNE,16.1,-,N/A,,Partly Cloudy,30,2012-12-25 05:11:00
11:25 PM,14.0,10.4,86,29.96,9.0,NNE,16.1,-,N/A,,Mostly Cloudy,30,2012-12-25 05:25:00
11:52 PM,14.0,10.0,84,30.06,9.0,NNE,16.1,-,N/A,,Overcast,30,2012-12-25 05:52:00